This is the latest recevied weather packets stored in our database for station/object K4PAD. If no packets are shown the sender has not sent any weather packets the latest 10 day(s).
| Time | Temp. | Humidity | Pressure | Rain* | Wind** | Luminosity | Snow |
|---|---|---|---|---|---|---|---|
| 1777507356 | 29.44° C | 47% | 1011.4 hPa | 0 mm | - | 3 W/m² | - |
| 1777507054 | 30° C | 46% | 1011.8 hPa | 0 mm | - | 6 W/m² | - |
| 1777506751 | 30° C | 46% | 1011.7 hPa | 0 mm | - | 9 W/m² | - |
| 1777506447 | 30° C | 45% | 1011.6 hPa | 0 mm | - | 15 W/m² | - |
| 1777506143 | 30.56° C | 45% | 1011.4 hPa | 0 mm | - | 21 W/m² | - |
| 1777505839 | 30.56° C | 44% | 1011.1 hPa | 0 mm | - | 26 W/m² | - |
| 1777505536 | 30.56° C | 43% | 1011.4 hPa | 0 mm | - | 34 W/m² | - |
| 1777505232 | 31.11° C | 43% | 1011.5 hPa | 0 mm | - | 46 W/m² | - |
| 1777504929 | 31.11° C | 42% | 1011.2 hPa | 0 mm | - | 60 W/m² | - |
| 1777504626 | 31.67° C | 42% | 1011.2 hPa | 0 mm | - | 71 W/m² | - |
| 1777504323 | 31.67° C | 42% | 1011.2 hPa | 0 mm | - | 92 W/m² | - |
| 1777504017 | 31.67° C | 42% | 1011.1 hPa | 0 mm | - | 89 W/m² | - |
| 1777503714 | 31.67° C | 42% | 1011 hPa | 0 mm | - | 106 W/m² | - |
| 1777503411 | 32.22° C | 41% | 1011 hPa | 0 mm | - | 133 W/m² | - |
| 1777503107 | 31.67° C | 41% | 1011.2 hPa | 0 mm | - | 149 W/m² | - |
| 1777502805 | 31.67° C | 41% | 1011.2 hPa | 0 mm | - | 117 W/m² | - |
| 1777502502 | 31.67° C | 42% | 1011 hPa | 0 mm | - | 173 W/m² | - |
| 1777502199 | 31.67° C | 41% | 1011 hPa | 0 mm | - | 79 W/m² | - |
| 1777501896 | 31.67° C | 41% | 1011 hPa | 0 mm | - | 72 W/m² | - |
| 1777501593 | 32.22° C | 41% | 1010.9 hPa | 0 mm | - | 71 W/m² | - |
| 1777501290 | 32.78° C | 40% | 1010.9 hPa | 0 mm | - | 99 W/m² | - |
| 1777500988 | 32.78° C | 38% | 1010.9 hPa | 0 mm | - | 313 W/m² | - |
| 1777500686 | 32.22° C | 39% | 1010.8 hPa | 0 mm | - | 304 W/m² | - |
| 1777500382 | 32.22° C | 38% | 1010.8 hPa | 0 mm | - | 103 W/m² | - |
| 1777500078 | 32.78° C | 38% | 1010.7 hPa | 0 mm | - | 106 W/m² | - |
* Rain latest hour (hover to see other rain measurements)
** Current wind speed in m/s (hover to see current wind gust speed)